This demonstration page uses our WeatherBlox Daily Observations layout. Learn more.

Hourly Observations for January 29, 2017

Temp ( °F °C ) Dew Point ( °F °C ) Humidity (%) Winds ( mph kmh ) Pressure ( in mb ) Visibility ( mi km ) Precip ( " mm )
12:54 am 00:54 Mostly Clear 36 2.2 28 -2.2 73 73 NW 10 17 30.06 1018 10 16.0934 0 0
1:09 am 01:09 Mostly Cloudy 36 2 28 -2 75 75 WNW 7 11 30.09 1019 10 16.0934 0 0
1:54 am 01:54 Cloudy 36 2.2 29 -1.7 76 76 W 12 19 30.05 1018 10 16.0934 0 0
2:37 am 02:37 Partly Cloudy 35 1.7 29 -1.7 78 78 WNW 9 15 30.09 1019 10 16.0934 0 0
2:54 am 02:54 Mostly Clear 35 1.7 29 -1.7 78 78 WNW 8 13 30.04 1017 10 16.0934 0 0
3:54 am 03:54 Mostly Cloudy 34 1.1 29 -1.7 82 82 WNW 9 15 30.05 1018 10 16.0934 0 0
4:54 am 04:54 Partly Cloudy 33 0.6 29 -1.7 85 85 W 6 9 30.05 1018 10 16.0934 0 0
5:54 am 05:54 Mostly Cloudy 32 0 29 -1.7 88 88 W 3 6 30.03 1017 10 16.0934 0 0
6:54 am 06:54 Mostly Cloudy 32 0 28 -2.2 85 85 W 5 7 30.06 1018 10 16.0934 0 0
7:54 am 07:54 Sunny 33 0.6 29 -1.7 85 85 WNW 6 9 30.06 1018 10 16.0934 0 0
8:54 am 08:54 Mostly Cloudy 37 2.8 31 -0.6 79 79 WNW 9 15 30.07 1018 10 16.0934 0 0
9:54 am 09:54 Cloudy 40 4.4 32 0 73 73 WNW 10 17 30.08 1019 10 16.0934 0 0
10:54 am 10:54 Cloudy 42 5.6 33 0.6 71 71 WNW 13 20 30.1 1019 10 16.0934 0 0
11:54 am 11:54 Cloudy 45 7.2 33 0.6 63 63 NW 13 20 30.07 1018 10 16.0934 0 0
12:23 pm 12:23 Cloudy 46 7.8 33 0.6 61 61 NNW 13 20 30.09 1019 10 16.0934 0 0
12:37 pm 12:37 Cloudy 46 7.8 34 1.1 63 63 NNW 10 17 30.09 1019 10 16.0934 0 0
12:54 pm 12:54 Cloudy 46 7.8 34 1.1 63 63 NW 15 24 30.06 1018 10 16.0934 0 0
1:20 pm 13:20 Cloudy 46 8 34 1 62 62 NW 14 22 30.06 1018 10 16.0934 0 0
1:54 pm 13:54 Cloudy 48 8.9 34 1.1 58 58 NNW 13 20 30.06 1018 10 16.0934 0 0
2:54 pm 14:54 Cloudy 47 8.3 34 1.1 61 61 NNW 14 22 30.07 1018 10 16.0934 0 0
3:54 pm 15:54 Cloudy 47 8.3 33 0.6 59 59 NW 12 19 30.08 1019 10 16.0934 0 0
4:54 pm 16:54 Mostly Cloudy 46 7.8 34 1.1 63 63 NW 14 22 30.11 1020 10 16.0934 0 0
5:54 pm 17:54 Clear 42 5.6 32 0 68 68 NW 6 9 30.11 1020 10 16.0934 0 0
6:54 pm 18:54 Clear 39 3.9 31 -0.6 73 73 WNW 7 11 30.11 1020 10 16.0934 0 0
7:54 pm 19:54 Clear 33 0.6 28 -2.2 82 82 Calm 30.1 1019 10 16.0934 0 0
8:54 pm 20:54 Clear 29 -1.7 26 -3.3 89 89 Calm 30.1 1019 10 16.0934 0 0
9:54 pm 21:54 Clear 28 -2.2 26 -3.3 92 92 Calm 30.09 1019 10 16.0934 0 0
10:54 pm 22:54 Clear 28 -2.2 26 -3.3 92 92 S 3 6 30.06 1018 10 16.0934 0 0
11:54 pm 23:54 Clear 27 -2.8 26 -3.3 96 96 S 6 9 30.05 1018 10 16.0934 0 0

Powered by AerisWeather